Michigan City, IN

5:05 AM CST on February 21, 2017 (GMT -0600)
Michigan City Municipal

Weather History for KMGC - April, 2013

Change the Weather History Date:

Friday, April 19, 2013

  Actual Average (KSBN) Record (KSBN)
Temperature  
Mean Temperature 38 °F -  
Max Temperature 44 °F 61 °F 84 °F (1985)
Min Temperature 33 °F 42 °F 20 °F (1926)
Degree Days  
Heating Degree Days 26    
Moisture  
Dew Point 30 °F    
Average Humidity 77    
Maximum Humidity 93    
Minimum Humidity 70    
Precipitation  
Precipitation 0.00 in - - ()
Sea Level Pressure  
Sea Level Pressure 29.65 in    
Wind  
Wind Speed 15 mph (WSW)    
Max Wind Speed 28 mph    
Max Gust Speed 36 mph    
Visibility 10 miles    
Events Rain    
Averages and records for this station are not official NWS values.
T = Trace of Precipitation, MM = Missing Value Source: NWS Daily Summary

Daily Weather History Graph

Daily Weather History Graph

Search for Another Location

Airport or City:

Trip Planner

Search our weather history database for the weather conditions in past years. The results will help you decide how hot, cold, wet, or windy it might be!

Date:

Astronomy

Apr. 19, 2013 Rise Set
Actual Time 6:00 AM CDT 7:32 PM CDT
Civil Twilight 5:31 AM CDT 8:01 PM CDT
Nautical Twilight 4:56 AM CDT 8:37 PM CDT
Astronomical Twilight 4:18 AM CDT 9:14 PM CDT
Moon 1:11 PM CDT (4/19) 2:21 AM CDT (4/19)
Length of Visible Light 14h 30m
Length of Day
13h 32m
First Quarter, 62% of the Moon is Illuminated
Apr 19
First Quarter
Apr 25
Full
May 2
Last Quarter
May 9
New
May 17
First Quarter

Hourly Weather History & Observations

Time (CDT) Temp. Windchill Dew Point Humidity Pressure Visibility Wind Dir Wind Speed Gust Speed Precip Events Conditions
12:15 AM 44.6 °F 37.8 °F 41.0 °F 87% 29.53 in 10.0 mi WSW 15.0 mph 21.9 mph N/A Rain Rain
12:35 AM 42.8 °F 36.6 °F 41.0 °F 93% 29.54 in 10.0 mi WSW 11.5 mph 16.1 mph N/A Rain Light Rain
12:55 AM 42.8 °F 36.2 °F 37.4 °F 81% 29.54 in 10.0 mi WSW 12.7 mph 18.4 mph N/A   Overcast
1:15 AM 42.8 °F 36.6 °F 37.4 °F 81% 29.54 in 10.0 mi West 11.5 mph 17.3 mph N/A   Overcast
1:35 AM 41.0 °F 35.8 °F 35.6 °F 81% 29.52 in 10.0 mi West 8.1 mph - N/A   Overcast
1:55 AM 41.0 °F 35.2 °F 35.6 °F 81% 29.52 in 10.0 mi West 9.2 mph - N/A   Overcast
2:15 AM 41.0 °F 34.7 °F 35.6 °F 81% 29.52 in 10.0 mi WSW 10.4 mph 16.1 mph N/A   Overcast
2:35 AM 39.2 °F 31.6 °F 33.8 °F 81% 29.54 in 10.0 mi West 12.7 mph 20.7 mph N/A   Overcast
2:55 AM 37.4 °F 29.3 °F 32.0 °F 81% 29.52 in 10.0 mi West 12.7 mph 20.7 mph N/A   Overcast
3:15 AM 37.4 °F 28.5 °F 32.0 °F 81% 29.52 in 10.0 mi West 15.0 mph 23.0 mph N/A   Overcast
3:35 AM 37.4 °F 28.9 °F 32.0 °F 81% 29.52 in 10.0 mi West 13.8 mph 19.6 mph N/A   Overcast
3:55 AM 37.4 °F 27.2 °F 32.0 °F 81% 29.53 in 10.0 mi WSW 19.6 mph 26.5 mph N/A   Overcast
4:15 AM 37.4 °F 29.3 °F 32.0 °F 81% 29.54 in 10.0 mi WSW 12.7 mph 21.9 mph N/A   Overcast
4:35 AM 37.4 °F 31.4 °F 30.2 °F 75% 29.53 in 10.0 mi WSW 8.1 mph 25.3 mph N/A   Overcast
4:55 AM 37.4 °F 26.9 °F 30.2 °F 75% 29.53 in 10.0 mi WSW 20.7 mph 31.1 mph N/A   Overcast
5:15 AM 37.4 °F 28.5 °F 28.4 °F 70% 29.53 in 10.0 mi West 15.0 mph 27.6 mph N/A   Overcast
5:35 AM 37.4 °F 28.2 °F 28.4 °F 70% 29.53 in 10.0 mi WSW 16.1 mph 26.5 mph N/A   Overcast
5:55 AM 35.6 °F 24.8 °F 28.4 °F 75% 29.54 in 10.0 mi WSW 19.6 mph 26.5 mph N/A   Overcast
6:15 AM 35.6 °F 26.2 °F 28.4 °F 75% 29.54 in 10.0 mi WSW 15.0 mph 25.3 mph N/A   Overcast
6:35 AM 35.6 °F 26.6 °F 28.4 °F 75% 29.54 in 10.0 mi WSW 13.8 mph 26.5 mph N/A   Overcast
6:55 AM 35.6 °F 27.1 °F 28.4 °F 75% 29.55 in 10.0 mi WSW 12.7 mph 31.1 mph N/A   Overcast
7:15 AM 37.4 °F 28.2 °F 28.4 °F 70% 29.55 in 10.0 mi WSW 16.1 mph 24.2 mph N/A   Overcast
7:35 AM 35.6 °F 27.1 °F 28.4 °F 75% 29.56 in 10.0 mi WSW 12.7 mph 19.6 mph N/A   Overcast
7:55 AM 35.6 °F 25.2 °F 30.2 °F 81% 29.55 in 10.0 mi WSW 18.4 mph 25.3 mph N/A   Overcast
8:15 AM 35.6 °F 24.8 °F 28.4 °F 75% 29.56 in 10.0 mi WSW 19.6 mph 24.2 mph N/A   Overcast
8:35 AM 35.6 °F 25.2 °F 28.4 °F 75% 29.57 in 10.0 mi SW 18.4 mph 32.2 mph N/A   Overcast
8:55 AM 35.6 °F 25.2 °F 30.2 °F 81% 29.57 in 10.0 mi WSW 18.4 mph 26.5 mph N/A   Overcast
9:15 AM 35.6 °F 26.2 °F 28.4 °F 75% 29.57 in 10.0 mi WSW 15.0 mph 29.9 mph N/A   Overcast
9:35 AM 35.6 °F 25.5 °F 30.2 °F 81% 29.58 in 10.0 mi SW 17.3 mph 28.8 mph N/A   Overcast
9:55 AM 37.4 °F 27.8 °F 30.2 °F 75% 29.59 in 10.0 mi SW 17.3 mph 26.5 mph N/A   Overcast
10:15 AM 35.6 °F 25.9 °F 30.2 °F 81% 29.59 in 10.0 mi SW 16.1 mph 25.3 mph N/A   Overcast
10:35 AM 37.4 °F 27.5 °F 30.2 °F 75% 29.59 in 10.0 mi SW 18.4 mph 28.8 mph N/A   Overcast
10:55 AM 37.4 °F 26.4 °F 30.2 °F 75% 29.59 in 10.0 mi SW 23.0 mph 32.2 mph N/A   Overcast
11:15 AM 37.4 °F 27.2 °F 28.4 °F 70% 29.60 in 10.0 mi SW 19.6 mph 28.8 mph N/A   Overcast
11:35 AM 37.4 °F 27.8 °F 28.4 °F 70% 29.60 in 10.0 mi WSW 17.3 mph 29.9 mph N/A   Overcast
11:55 AM 37.4 °F 28.5 °F 28.4 °F 70% 29.60 in 10.0 mi WSW 15.0 mph 34.5 mph N/A   Overcast
12:15 PM 37.4 °F 27.2 °F 28.4 °F 70% 29.60 in 10.0 mi WSW 19.6 mph 28.8 mph N/A   Overcast
12:35 PM 37.4 °F 28.9 °F 30.2 °F 75% 29.62 in 10.0 mi WSW 13.8 mph 29.9 mph N/A   Overcast
12:55 PM 37.4 °F 28.9 °F 30.2 °F 75% 29.62 in 10.0 mi WSW 13.8 mph 33.4 mph N/A   Overcast
1:15 PM 37.4 °F 27.5 °F 28.4 °F 70% 29.64 in 10.0 mi WSW 18.4 mph 26.5 mph N/A   Overcast
1:35 PM 37.4 °F 25.4 °F 28.4 °F 70% 29.65 in 10.0 mi WSW 27.6 mph 35.7 mph N/A   Overcast
1:55 PM 37.4 °F 27.2 °F 28.4 °F 70% 29.66 in 10.0 mi WSW 19.6 mph 35.7 mph N/A   Overcast
2:15 PM 37.4 °F 26.6 °F 30.2 °F 75% 29.67 in 10.0 mi WSW 21.9 mph 35.7 mph N/A   Light Drizzle
2:35 PM 37.4 °F 26.1 °F 30.2 °F 75% 29.67 in 10.0 mi WSW 24.2 mph 31.1 mph N/A   Overcast
2:55 PM 37.4 °F 28.2 °F 28.4 °F 70% 29.67 in 10.0 mi WSW 16.1 mph 34.5 mph N/A   Overcast
3:15 PM 37.4 °F 29.3 °F 28.4 °F 70% 29.68 in 10.0 mi WSW 12.7 mph 27.6 mph N/A   Overcast
3:35 PM 37.4 °F 28.2 °F 28.4 °F 70% 29.69 in 10.0 mi WSW 16.1 mph 33.4 mph N/A   Overcast
3:55 PM 37.4 °F 27.8 °F 28.4 °F 70% 29.69 in 10.0 mi WSW 17.3 mph 28.8 mph N/A   Overcast
4:15 PM 37.4 °F 28.2 °F 30.2 °F 75% 29.71 in 10.0 mi WSW 16.1 mph 23.0 mph N/A   Overcast
4:35 PM 37.4 °F 28.5 °F 28.4 °F 70% 29.71 in 10.0 mi WSW 15.0 mph 27.6 mph N/A   Overcast
4:55 PM 37.4 °F 28.9 °F 28.4 °F 70% 29.72 in 10.0 mi WSW 13.8 mph 24.2 mph N/A   Overcast
5:15 PM 35.6 °F 25.5 °F 28.4 °F 75% 29.73 in 10.0 mi WSW 17.3 mph 24.2 mph N/A   Overcast
5:35 PM 37.4 °F 27.2 °F 28.4 °F 70% 29.74 in 10.0 mi WSW 19.6 mph 31.1 mph N/A   Overcast
5:55 PM 37.4 °F 28.2 °F 28.4 °F 70% 29.75 in 10.0 mi WSW 16.1 mph 24.2 mph N/A   Overcast
6:15 PM 35.6 °F 26.6 °F 28.4 °F 75% 29.75 in 10.0 mi WSW 13.8 mph 24.2 mph N/A   Overcast
6:35 PM 37.4 °F 28.9 °F 28.4 °F 70% 29.76 in 10.0 mi WSW 13.8 mph 26.5 mph N/A   Overcast
6:55 PM 35.6 °F 27.1 °F 28.4 °F 75% 29.77 in 10.0 mi WSW 12.7 mph 18.4 mph N/A   Overcast
7:15 PM 35.6 °F 25.2 °F 30.2 °F 81% 29.79 in 10.0 mi WSW 18.4 mph 27.6 mph N/A   Overcast
7:35 PM 35.6 °F 25.9 °F 30.2 °F 81% 29.79 in 10.0 mi WSW 16.1 mph 24.2 mph N/A   Light Drizzle
7:55 PM 35.6 °F 26.6 °F 30.2 °F 81% 29.80 in 10.0 mi WSW 13.8 mph 19.6 mph N/A   Overcast
8:15 PM 35.6 °F 27.5 °F 30.2 °F 81% 29.81 in 10.0 mi WSW 11.5 mph 21.9 mph N/A Rain Light Rain
8:35 PM 35.6 °F 26.6 °F 30.2 °F 81% 29.82 in 10.0 mi WSW 13.8 mph 20.7 mph N/A Rain Light Rain
8:55 PM 35.6 °F 27.5 °F 32.0 °F 87% 29.83 in 10.0 mi West 11.5 mph 20.7 mph N/A Rain Light Rain
9:15 PM 35.6 °F 25.5 °F 32.0 °F 87% 29.84 in 10.0 mi West 17.3 mph 28.8 mph N/A Rain Light Rain
9:35 PM 33.8 °F 24.8 °F 30.2 °F 87% 29.85 in 10.0 mi West 12.7 mph 20.7 mph N/A   Overcast
9:55 PM 35.6 °F 25.5 °F 30.2 °F 81% 29.86 in 10.0 mi West 17.3 mph 26.5 mph N/A   Overcast
10:15 PM 35.6 °F 28.6 °F 30.2 °F 81% 29.86 in 10.0 mi West 9.2 mph 23.0 mph N/A   Overcast
10:35 PM 35.6 °F 25.9 °F 30.2 °F 81% 29.87 in 10.0 mi West 16.1 mph 25.3 mph N/A   Overcast
10:55 PM 35.6 °F 27.5 °F 30.2 °F 81% 29.87 in 10.0 mi West 11.5 mph 21.9 mph N/A   Overcast
11:15 PM 35.6 °F 28.0 °F 30.2 °F 81% 29.88 in 10.0 mi West 10.4 mph 24.2 mph N/A   Overcast
11:35 PM 35.6 °F 27.1 °F 30.2 °F 81% 29.89 in 10.0 mi West 12.7 mph 25.3 mph N/A   Overcast
11:55 PM 35.6 °F 28.0 °F 30.2 °F 81% 29.90 in 10.0 mi West 10.4 mph 17.3 mph N/A   Overcast